Tracking 35274 objects as of 11-Sep-2026
HD Live streaming from Space Station
objects crossing your sky now

SOLRAD 11A AKM


NORAD ID: 8752
Int'l Code: 1976-023G
Launch date: March 15, 1976
Source: United States (US)
Launch site: AIR FORCE EASTERN TEST RANGE (AFETR)

Note: This is a ROCKET BODY
Your satellite tracking list
Your tracking list is empty




NASA's NSSDC Master Catalog

Two Line Element Set (TLE):
1  8752U 76023G   26250.33778644 -.00000435  00000-0  00000+0 0  9999
2  8752  21.6577 356.7515 4383172  58.5139 359.6083  0.41540803 81821
Source of the keplerian elements: AFSPC